GW5109 Weather Reports


time (UTC)temp
F
wind
direction
speed
knots
gust
knots
rain 1hr
in
rain 24hr
in
rain mn
in
humidity
%
barometer
mb
20260510164650 69 183 2.6 9.6 0.00 0.00 0.00 58 1019.0
20260510164147 69 252 1.7 6.1 0.00 0.00 0.00 54 1018.9
20260510163642 70 198 3.5 7.8 0.00 0.00 0.00 51 1019.0
20260510163137 71 221 0.0 1.7 0.00 0.00 0.00 53 1019.1
20260510162631 71 214 1.7 5.2 0.00 0.00 0.00 50 1019.0
20260510162128 72 251 1.7 5.2 0.00 0.00 0.00 48 1018.9
20260510161624 72 246 3.5 7.8 0.00 0.00 0.00 49 1018.9
20260510161121 71 256 3.5 7.0 0.00 0.00 0.00 51 1019.2
20260510160618 70 290 3.5 7.8 0.00 0.00 0.00 50 1019.0
20260510160118 69 307 0.0 6.1 0.00 0.00 0.00 52 1019.0
20260510155615 69 336 2.6 2.6 0.00 0.00 0.00 49 1018.9
20260510155111 69 254 5.2 8.7 0.00 0.00 0.00 50 1019.0
20260510154606 70 256 2.6 6.1 0.00 0.00 0.00 52 1019.1
20260510154102 71 201 5.2 6.1 0.00 0.00 0.00 50 1019.1
20260510153557 71 232 6.1 7.0 0.00 0.00 0.00 48 1019.0
20260510153054 70 256 5.2 7.0 0.00 0.00 0.00 51 1019.0
20260510152551 70 262 1.7 13.0 0.00 0.00 0.00 53 1019.0
20260510152048 70 277 1.7 7.0 0.00 0.00 0.00 53 1019.0
20260510151544 69 222 1.7 5.2 0.00 0.00 0.00 53 1019.0
20260510151042 70 220 1.7 7.8 0.00 0.00 0.00 52 1018.9
20260510150537 70 150 1.7 6.1 0.00 0.00 0.00 54 1018.9
20260510150033 70 234 5.2 7.8 0.00 0.00 0.00 51 1018.8
20260510145530 69 251 3.5 6.1 0.00 0.00 0.00 54 1018.9
20260510145026 68 250 5.2 7.0 0.00 0.00 0.00 54 1018.9
20260510144523 69 245 7.0 9.6 0.00 0.00 0.00 52 1018.9
20260510144019 69 212 2.6 3.5 0.00 0.00 0.00 54 1018.8
20260510143514 69 314 3.5 6.1 0.00 0.00 0.00 54 1018.9
20260510143011 69 254 2.6 5.2 0.00 0.00 0.00 57 1018.7
20260510142508 69 280 2.6 7.0 0.00 0.00 0.00 56 1018.8
20260510142004 68 270 3.5 7.8 0.00 0.00 0.00 56 1018.6
20260510141501 68 243 5.2 7.8 0.00 0.00 0.00 56 1018.8
20260510140959 67 254 0.9 7.8 0.00 0.00 0.00 59 1018.7
20260510140454 67 250 5.2 12.2 0.00 0.00 0.00 57 1018.7
20260510135954 66 274 2.6 6.1 0.00 0.00 0.00 60 1018.9
20260510135450 66 246 3.5 5.2 0.00 0.00 0.00 59 1018.8
20260510134947 65 205 3.5 6.1 0.00 0.00 0.00 60 1018.8
20260510134444 65 220 2.6 5.2 0.00 0.00 0.00 62 1018.8
20260510133941 65 246 2.6 6.1 0.00 0.00 0.00 62 1019.0
20260510133436 64 232 2.6 8.7 0.00 0.00 0.00 64 1018.8
20260510132932 64 242 3.5 6.1 0.00 0.00 0.00 64 1019.0
20260510132430 64 289 6.1 7.8 0.00 0.00 0.00 64 1019.0
20260510131927 63 264 1.7 5.2 0.00 0.00 0.00 67 1018.9
20260510131424 62 269 3.5 5.2 0.00 0.00 0.00 67 1018.7
20260510130920 62 224 4.3 7.0 0.00 0.00 0.00 67 1018.8
20260510130418 61 281 1.7 5.2 0.00 0.00 0.00 70 1018.8
20260510125915 60 252 1.7 5.2 0.00 0.00 0.00 71 1018.7
20260510125410 60 226 3.5 7.8 0.00 0.00 0.00 71 1018.9
20260510124908 60 218 1.7 2.6 0.00 0.00 0.00 74 1018.7
20260510124404 59 212 1.7 3.5 0.00 0.00 0.00 74 1018.8
20260510123900 59 209 0.9 5.2 0.00 0.00 0.00 73 1018.8
20260510123356 58 242 1.7 5.2 0.00 0.00 0.00 74 1018.7
20260510122853 58 292 1.7 2.6 0.00 0.00 0.00 74 1018.8
20260510122348 58 224 3.5 3.5 0.00 0.00 0.00 75 1018.6
20260510121845 58 244 1.7 3.5 0.00 0.00 0.00 76 1018.4
20260510121343 57 271 3.5 7.0 0.00 0.00 0.00 76 1018.4
20260510120839 57 288 2.6 7.0 0.00 0.00 0.00 77 1018.2
20260510120337 57 244 2.6 3.5 0.00 0.00 0.00 76 1018.1
20260510115832 57 285 3.5 5.2 0.00 0.00 0.00 76 1018.1
20260510115330 57 266 1.7 5.2 0.00 0.00 0.00 76 1018.1
20260510114825 57 294 3.5 5.2 0.00 0.00 0.00 76 1018.2
20260510114323 57 266 2.6 6.1 0.00 0.00 0.00 77 1018.1
20260510113817 57 237 5.2 7.0 0.00 0.00 0.00 77 1018.1
20260510113314 57 240 3.5 5.2 0.00 0.00 0.00 77 1018.1
20260510112811 56 238 2.6 5.2 0.00 0.00 0.00 77 1018.2
20260510112308 56 221 3.5 7.0 0.00 0.00 0.00 78 1018.1
20260510111804 56 254 1.7 9.6 0.00 0.00 0.00 78 1018.1
20260510111301 55 227 5.2 7.8 0.00 0.00 0.00 79 1018.0
20260510110800 55 230 4.3 7.8 0.00 0.00 0.00 80 1018.0
20260510110258 54 254 2.6 3.5 0.00 0.00 0.00 82 1017.8
20260510105759 53 246 1.7 2.6 0.00 0.00 0.00 84 1017.8
20260510105253 53 264 1.7 2.6 0.00 0.00 0.00 84 1017.8
20260510104750 53 274 1.7 3.5 0.00 0.00 0.00 84 1017.6
20260510104248 53 218 2.6 3.5 0.00 0.00 0.00 84 1017.7
20260510103744 53 232 3.5 3.5 0.00 0.00 0.00 83 1017.6
20260510103241 53 258 1.7 7.0 0.00 0.00 0.00 83 1017.4
20260510102741 53 255 1.7 5.2 0.00 0.00 0.00 83 1017.2
20260510102236 54 249 1.7 3.5 0.00 0.00 0.00 82 1017.1
20260510101734 54 239 1.7 5.2 0.00 0.00 0.00 81 1017.0
20260510101233 55 247 1.7 6.1 0.00 0.00 0.00 81 1017.1
20260510100728 55 222 1.7 3.5 0.00 0.00 0.00 81 1016.8
20260510100226 55 188 2.6 3.5 0.00 0.00 0.00 81 1017.0
20260510095721 54 208 3.5 3.5 0.00 0.00 0.00 81 1017.0
20260510095217 55 288 3.5 5.2 0.00 0.00 0.00 81 1017.1
20260510094716 54 242 0.9 2.6 0.00 0.00 0.00 82 1017.1
20260510094212 55 246 1.7 2.6 0.00 0.00 0.00 82 1017.1
20260510093708 55 207 1.7 3.5 0.00 0.00 0.00 82 1017.0
20260510093205 55 233 2.6 6.1 0.00 0.00 0.00 82 1017.0
20260510092701 55 164 1.7 5.2 0.00 0.00 0.00 82 1016.8
20260510092157 54 269 1.7 6.1 0.00 0.00 0.00 83 1016.7
20260510091653 54 228 0.9 5.2 0.00 0.00 0.00 84 1016.7
20260510091149 54 251 5.2 7.8 0.00 0.00 0.00 84 1016.6
20260510090646 54 312 4.3 7.0 0.00 0.00 0.00 85 1016.4
20260510090143 54 201 1.7 6.1 0.00 0.00 0.00 84 1016.3
20260510085638 54 252 3.5 5.2 0.00 0.00 0.00 85 1016.3
20260510085133 53 239 3.5 7.0 0.00 0.00 0.00 85 1016.5
20260510084630 53 227 1.7 3.5 0.00 0.00 0.00 85 1016.4
20260510084126 53 225 2.6 3.5 0.00 0.00 0.00 86 1016.5
20260510083623 53 243 4.3 7.0 0.00 0.00 0.00 86 1016.4
20260510083119 53 262 3.5 6.1 0.00 0.00 0.00 85 1016.4
20260510082615 53 235 1.7 5.2 0.00 0.00 0.00 85 1016.3
20260510082111 53 238 3.5 6.1 0.00 0.00 0.00 85 1016.4
20260510081606 53 276 3.5 7.0 0.00 0.00 0.00 85 1016.3
20260510081102 53 239 3.5 6.1 0.00 0.00 0.00 86 1016.2
20260510080601 53 256 2.6 3.5 0.00 0.00 0.00 86 1016.2
20260510080058 53 222 1.7 5.2 0.00 0.00 0.00 85 1016.1
20260510075555 53 243 2.6 6.1 0.00 0.00 0.00 86 1016.0
20260510075052 53 243 3.5 5.2 0.00 0.00 0.00 85 1015.9
20260510074550 53 260 1.7 5.2 0.00 0.00 0.00 85 1015.9
20260510074045 53 235 2.6 6.1 0.00 0.00 0.00 85 1015.8
20260510073541 53 327 3.5 5.2 0.00 0.00 0.00 86 1016.0
20260510073039 53 212 1.7 6.1 0.00 0.00 0.00 86 1015.7
20260510072535 53 260 2.6 5.2 0.00 0.00 0.00 86 1015.9
20260510072031 53 258 3.5 5.2 0.00 0.00 0.00 86 1015.9
20260510071527 53 277 2.6 3.5 0.00 0.00 0.00 85 1016.0
20260510071025 53 227 1.7 5.2 0.00 0.00 0.00 85 1015.9
20260510070522 53 294 2.6 5.2 0.00 0.00 0.00 85 1015.8
20260510070019 53 246 1.7 3.5 0.00 0.00 0.00 84 1015.7
20260510065515 53 274 2.6 5.2 0.00 0.00 0.00 85 1015.8
20260510065011 53 254 2.6 3.5 0.00 0.00 0.00 83 1015.9
20260510064508 53 231 1.7 5.2 0.00 0.00 0.00 84 1016.0
20260510064005 54 224 1.7 5.2 0.00 0.00 0.00 83 1015.9
20260510063501 54 236 3.5 5.2 0.00 0.00 0.00 82 1015.8
20260510062959 54 226 1.7 2.6 0.00 0.00 0.00 82 1015.8
20260510062454 54 249 3.5 6.1 0.00 0.00 0.00 82 1015.9
20260510061949 54 234 2.6 6.1 0.00 0.00 0.00 81 1016.0
20260510061446 55 234 1.7 5.2 0.00 0.00 0.00 81 1015.9
20260510060943 55 238 1.7 3.5 0.00 0.00 0.00 81 1015.6
20260510060440 55 277 1.7 3.5 0.00 0.00 0.00 80 1015.9
20260510055936 55 252 1.7 5.2 0.00 0.00 0.00 80 1015.7
20260510055432 55 249 0.9 2.6 0.00 0.00 0.00 80 1015.9
20260510054931 55 226 1.7 5.2 0.00 0.00 0.00 80 1015.8
20260510054431 55 290 2.6 5.2 0.00 0.00 0.00 80 1015.9
20260510053926 55 216 2.6 3.5 0.00 0.00 0.00 80 1016.0
20260510053422 55 215 0.9 6.1 0.00 0.00 0.00 79 1015.8
20260510052918 55 205 0.9 1.7 0.00 0.00 0.00 79 1016.0
20260510052414 55 234 2.6 3.5 0.00 0.00 0.00 80 1016.1
20260510051911 55 240 0.9 3.5 0.00 0.00 0.00 79 1016.0
20260510051407 55 245 1.7 3.5 0.00 0.00 0.00 80 1016.0
20260510050904 55 229 0.9 3.5 0.00 0.00 0.00 80 1016.0
20260510050400 55 242 0.9 2.6 0.00 0.00 0.00 80 1016.2
20260510045857 55 240 1.7 2.6 0.00 0.00 0.00 80 1016.1
20260510045354 54 230 0.9 1.7 0.00 0.00 0.00 80 1015.9
20260510044851 54 225 0.9 0.9 0.00 0.00 0.00 82 1015.8
20260510044348 53 210 0.9 1.7 0.00 0.00 0.00 82 1015.8
20260510043844 53 225 0.0 0.9 0.00 0.00 0.00 82 1015.9
20260510043340 53 229 0.9 0.9 0.00 0.00 0.00 82 1016.1
20260510042839 53 228 0.0 0.9 0.00 0.00 0.00 82 1016.0
20260510042334 53 213 0.9 0.9 0.00 0.00 0.00 82 1016.0
20260510041831 53 205 0.9 0.9 0.00 0.00 0.00 82 1015.9
20260510041328 53 225 0.0 0.9 0.00 0.00 0.00 81 1015.7
20260510040825 54 224 0.0 0.9 0.00 0.00 0.00 80 1015.8
20260510040322 54 238 0.9 0.9 0.00 0.00 0.00 80 1016.0
20260510035817 54 213 0.0 0.9 0.00 0.00 0.00 80 1015.8
20260510035314 54 213 0.0 0.9 0.00 0.00 0.00 79 1015.8
20260510034809 55 209 0.0 1.7 0.00 0.00 0.00 77 1015.9
20260510034307 56 242 0.0 0.9 0.00 0.00 0.00 76 1015.7
20260510033803 56 259 1.7 1.7 0.00 0.00 0.00 75 1015.7
20260510033301 56 229 0.9 1.7 0.00 0.00 0.00 74 1015.7
20260510032758 56 270 0.9 1.7 0.00 0.00 0.00 74 1015.6
20260510032254 57 238 1.7 2.6 0.00 0.00 0.00 74 1015.8
20260510031750 57 232 1.7 3.5 0.00 0.00 0.00 73 1015.7
20260510031245 57 222 1.7 5.2 0.00 0.00 0.00 73 1015.6
20260510030745 57 246 1.7 2.6 0.00 0.00 0.00 73 1015.7
20260510030242 57 248 2.6 2.6 0.00 0.00 0.00 72 1015.7
20260510025739 58 248 0.9 1.7 0.00 0.00 0.00 71 1015.7
20260510025237 58 260 1.7 2.6 0.00 0.00 0.00 71 1015.6
20260510024728 58 233 0.9 2.6 0.00 0.00 0.00 70 1015.9
20260510024225 58 238 2.6 3.5 0.00 0.00 0.00 70 1015.9
20260510023720 58 254 2.6 3.5 0.00 0.00 0.00 70 1015.7
20260510023218 58 233 0.9 2.6 0.00 0.00 0.00 71 1015.9
20260510022714 58 234 0.9 3.5 0.00 0.00 0.00 70 1015.7
20260510022209 57 236 1.7 2.6 0.00 0.00 0.00 70 1015.6
20260510021709 57 213 1.7 5.2 0.00 0.00 0.00 70 1015.4
20260510021207 57 228 0.9 0.9 0.00 0.00 0.00 71 1015.3
20260510020702 57 223 0.9 0.9 0.00 0.00 0.00 71 1015.2
20260510020156 57 220 0.0 0.9 0.00 0.00 0.00 71 1015.1
20260510015653 58 233 1.7 1.7 0.00 0.00 0.00 70 1015.2
20260510015150 57 271 1.7 2.6 0.00 0.00 0.00 71 1014.9
20260510014649 57 248 0.9 0.9 0.00 0.00 0.00 72 1015.1
20260510014147 57 225 0.0 0.9 0.00 0.00 0.00 71 1014.8
20260510013642 58 195 0.0 2.6 0.00 0.00 0.00 70 1014.5
20260510013138 57 238 1.7 2.6 0.00 0.00 0.00 71 1014.6
20260510012638 57 251 0.0 2.6 0.00 0.00 0.00 71 1014.6
20260510012134 56 209 0.9 1.7 0.00 0.00 0.00 72 1014.4
20260510011634 56 212 0.0 0.9 0.00 0.00 0.00 73 1014.5
20260510011130 56 207 0.0 0.0 0.00 0.00 0.00 74 1014.6
20260510010626 56 203 0.0 0.0 0.00 0.00 0.00 73 1014.4
20260510010124 56 207 0.0 0.9 0.00 0.00 0.00 72 1014.3
20260510005619 58 200 0.0 0.9 0.00 0.00 0.00 71 1014.3
20260510005117 58 205 0.0 1.7 0.00 0.00 0.00 69 1014.3
20260510004615 59 191 0.0 0.9 0.00 0.00 0.00 68 1014.0
20260510004113 59 226 0.9 2.6 0.00 0.00 0.00 65 1014.2
20260510003609 60 230 1.7 2.6 0.00 0.00 0.00 64 1013.8
20260510003105 59 248 0.0 1.7 0.00 0.00 0.00 66 1014.0
20260510002600 60 262 0.0 0.9 0.00 0.00 0.00 65 1014.2
20260510002057 60 229 0.9 0.9 0.00 0.00 0.00 64 1014.0
20260510001554 60 211 0.0 2.6 0.00 0.00 0.00 64 1013.9
20260510001053 60 265 1.7 1.7 0.00 0.00 0.00 65 1013.7
20260510000548 60 243 0.9 0.9 0.00 0.00 0.00 64 1013.9
20260510000045 61 256 0.0 1.7 0.00 0.00 0.00 64 1013.7
20260509235541 61 213 0.0 0.9 0.00 0.00 0.00 62 1013.7
20260509235038 61 183 1.7 2.6 0.00 0.00 0.00 61 1013.4
20260509234534 62 225 0.9 1.7 0.00 0.00 0.00 61 1013.6
20260509234032 62 262 0.9 1.7 0.00 0.00 0.00 60 1013.4
20260509233529 63 239 0.9 2.6 0.00 0.00 0.00 59 1013.5
20260509233027 64 135 0.0 2.6 0.00 0.00 0.00 58 1013.4
20260509232523 64 322 4.3 7.0 0.00 0.00 0.00 55 1013.2
20260509232020 64 324 0.9 3.5 0.00 0.00 0.00 57 1013.3
20260509231516 64 302 0.9 7.0 0.00 0.00 0.00 55 1013.2
20260509231015 65 179 1.7 2.6 0.00 0.00 0.00 56 1013.3
20260509230511 65 254 1.7 5.2 0.00 0.00 0.00 55 1013.1
20260509230008 66 239 1.7 3.5 0.00 0.00 0.00 54 1013.3
20260509225503 66 196 0.9 1.7 0.00 0.00 0.00 54 1013.2
20260509224959 66 238 0.0 1.7 0.00 0.00 0.00 55 1013.2
20260509224455 66 172 0.0 2.6 0.00 0.00 0.00 54 1013.4
20260509223952 66 199 0.0 2.6 0.00 0.00 0.00 55 1013.6
20260509223448 67 208 1.7 3.5 0.00 0.00 0.00 54 1013.3
20260509222946 67 241 1.7 8.7 0.00 0.00 0.00 54 1013.3
20260509222441 66 243 1.7 5.2 0.00 0.00 0.00 54 1013.4
20260509221937 65 175 0.0 3.5 0.00 0.00 0.00 56 1013.5
20260509221434 66 224 2.6 5.2 0.00 0.00 0.00 54 1013.5
20260509220929 65 251 1.7 7.0 0.00 0.00 0.00 56 1013.5
20260509220425 66 264 1.7 5.2 0.00 0.00 0.00 54 1013.4
20260509215922 67 207 0.0 0.9 0.00 0.00 0.00 55 1013.4
20260509215417 67 193 0.9 3.5 0.00 0.00 0.00 56 1013.3
20260509214915 67 249 2.6 5.2 0.00 0.00 0.00 53 1013.4
20260509214412 64 239 1.7 5.2 0.00 0.00 0.00 57 1013.5
20260509213909 64 195 0.9 1.7 0.00 0.00 0.00 58 1013.6
20260509213405 64 313 5.2 7.0 0.00 0.00 0.00 55 1013.5
20260509212903 64 242 3.5 3.5 0.00 0.00 0.00 56 1013.3
20260509212400 64 227 2.6 5.2 0.00 0.00 0.00 57 1013.2
20260509211856 65 216 1.7 2.6 0.00 0.00 0.00 56 1013.2
20260509211352 65 207 3.5 7.0 0.00 0.00 0.00 54 1013.0
20260509210848 65 136 0.9 1.7 0.00 0.00 0.00 55 1013.0
20260509210346 65 261 2.6 5.2 0.00 0.00 0.00 54 1012.9
20260509205846 65 254 1.7 3.5 0.00 0.00 0.00 54 1013.1
20260509205340 65 279 0.9 3.5 0.00 0.00 0.00 54 1013.3
20260509204837 65 189 3.5 5.2 0.00 0.00 0.00 52 1012.9
20260509204333 65 208 1.7 3.5 0.00 0.00 0.00 52 1013.0
20260509203830 65 208 0.9 6.1 0.00 0.00 0.00 53 1013.0
20260509203327 65 261 2.6 3.5 0.00 0.00 0.00 53 1013.1
20260509202823 65 196 2.6 7.0 0.00 0.00 0.00 56 1012.9
20260509202319 65 220 3.5 6.1 0.00 0.00 0.00 54 1012.8
20260509201818 66 259 3.5 5.2 0.00 0.00 0.00 54 1012.6
20260509201316 65 263 1.7 3.5 0.00 0.00 0.00 54 1012.6
20260509200812 65 284 1.7 7.0 0.00 0.00 0.00 54 1012.4
20260509200307 66 261 2.6 7.0 0.00 0.00 0.00 52 1012.4
20260509195804 66 317 5.2 7.0 0.00 0.00 0.00 51 1012.5
20260509195259 66 191 2.6 5.2 0.00 0.00 0.00 53 1012.5
20260509194759 65 214 1.7 3.5 0.00 0.00 0.00 54 1012.5
20260509194256 66 239 2.6 7.0 0.00 0.00 0.00 51 1012.2
20260509193753 66 252 7.0 8.7 0.00 0.00 0.00 50 1012.5
20260509193252 65 344 6.1 11.3 0.00 0.00 0.00 52 1012.5
20260509192749 65 171 3.5 11.3 0.00 0.00 0.00 54 1012.4
20260509192244 67 178 4.3 6.1 0.00 0.00 0.00 51 1012.4
20260509191739 65 115 1.7 2.6 0.00 0.00 0.00 57 1012.5
20260509191236 65 266 2.6 3.5 0.00 0.00 0.00 53 1012.4
20260509190732 65 251 6.1 8.7 0.00 0.00 0.00 51 1012.5
20260509190229 65 253 3.5 8.7 0.00 0.00 0.00 51 1012.6
20260509185726 65 233 3.5 7.0 0.00 0.00 0.00 52 1012.3
20260509185223 65 234 6.1 9.6 0.00 0.00 0.00 48 1012.6
20260509184720 65 177 1.7 6.1 0.00 0.00 0.00 52 1012.6
20260509184217 65 215 1.7 5.2 0.00 0.00 0.00 50 1012.8
20260509183714 65 226 3.5 7.0 0.00 0.00 0.00 49 1012.6
20260509183210 65 294 0.9 7.0 0.00 0.00 0.00 51 1012.6
20260509182705 65 286 3.5 6.1 0.00 0.00 0.00 51 1012.5
20260509182203 68 290 2.6 7.0 0.00 0.00 0.00 48 1012.5
20260509181700 68 220 1.7 2.6 0.00 0.00 0.00 46 1012.3
20260509181158 66 289 3.5 9.6 0.00 0.00 0.00 48 1012.5
20260509180654 65 353 4.3 8.7 0.00 0.00 0.00 48 1012.5
20260509180150 65 270 4.3 12.2 0.00 0.00 0.00 49 1012.3
20260509175647 65 260 4.3 9.6 0.00 0.00 0.00 47 1012.4
20260509175144 65 249 3.5 11.3 0.00 0.00 0.00 46 1012.6
20260509174640 65 239 2.6 7.0 0.00 0.00 0.00 47 1012.5
20260509174139 65 252 7.0 8.7 0.00 0.00 0.00 48 1012.6
20260509173636 67 249 7.8 9.6 0.00 0.00 0.00 47 1012.8
20260509173131 65 319 1.7 5.2 0.00 0.00 0.00 52 1012.6
20260509172628 65 219 6.1 13.0 0.00 0.00 0.00 52 1012.9
20260509172124 65 220 4.3 11.3 0.00 0.00 0.00 51 1013.0
20260509171620 65 85 3.5 14.8 0.00 0.00 0.00 49 1013.1
20260509171117 65 287 1.7 7.8 0.00 0.00 0.00 52 1013.1
20260509170613 64 351 7.8 12.2 0.00 0.00 0.00 51 1013.0
20260509170109 64 244 3.5 6.1 0.00 0.00 0.00 51 1013.1
20260509165608 65 218 2.6 3.5 0.00 0.00 0.00 53 1013.1
20260509165103 64 138 5.2 7.0 0.00 0.00 0.00 53 1013.2